Preview of NWS' New Version of Forecast
This preview is not operational and should not be used for support decisions.

Regional Weather Roundup (RWR)

Issued by Shreveport, LA (SHV)

                            
540 
ASUS44 KSHV 212310
RWRSHV

WEATHER ROUNDUP FOR THE FOUR STATE AREA
NATIONAL WEATHER SERVICE SHREVEPORT LA
600 PM CDT THU JUN 21 2018

NOTE:  "FAIR" INDICATES FEW OR NO CLOUDS BELOW 12000 FEET
WITH NO SIGNIFICANT WEATHER AND/OR OBSTRUCTIONS TO VISIBILITY.

!LAZ001-LAZ014-TXZ097-220000
SHREVEPORT...MONROE...TEXARKANA RADIOS
  
CITY           SKY/WX    TMP DP  RH WIND       PRES   REMARKS
SHREVEPORT       N/A     91  72  53 SW9       29.83F HX  98           
MONROE           N/A     92  74  55 W9        29.82F HX 101           
NATCHITOCHES     N/A     91  75  60 W8        29.84F HX 102           
TEXARKANA      MOSUNNY   90  73  57 W10       29.83F HX  98           
$$

!LAZ001-LAZ014-TXZ097-220000
OTHER LOCATIONS...
  
CITY           SKY/WX    TMP DP  RH WIND       PRES   REMARKS
DOWNTOWN SHV     N/A     92  72  51 W8        29.83F HX  99           
BOSSIER CITY     N/A     92  70  48 W9        29.83F HX  98           
RUSTON           N/A     90  71  52 CALM      29.87S                  
LITTLE ROCK    MOSUNNY   91  65  41 W18G28    29.75F                  
EL DORADO        N/A     90  76  63 W7        29.83F HX 101           
JACKSON        PTSUNNY   87  75  67 SW10      29.85F                  
NEW ORLEANS    PTSUNNY   88  76  67 SW7       29.89F HX  99           
HOUSTON        CLOUDY    88  76  67 S6        29.87F HX  99           
LUFKIN         SUNNY     91  75  59 SW7       29.85F HX 101           
TYLER          MOSUNNY   90  71  53 S9        29.86F                  
DAL FT WORTH   MOSUNNY   96  61  31 CALM      29.82F                  
$$


!TXZ136-TXZ165-220000
TYLER...LUFKIN RADIOS
  
CITY           SKY/WX    TMP DP  RH WIND       PRES   REMARKS
TYLER          MOSUNNY   90  71  53 S9        29.86F                  
GILMER         CLEAR     90  74  58 SW3       29.85F HX  98           
LONGVIEW       MOSUNNY   90  74  59 SW7       29.85F HX  99           
LUFKIN         SUNNY     91  75  59 SW7       29.85F HX 101           
$$

!TXZ136-TXZ165-220000
OTHER LOCATIONS...
  
CITY           SKY/WX    TMP DP  RH WIND       PRES   REMARKS
NACOGDOCHES      N/A     90  76  63 NW6       29.86F HX 101           
BEAUMONT         N/A     86  75  69 S16       29.87F                  
HOUSTON        CLOUDY    88  76  67 S6        29.87F HX  99           
COLLEGE STN    CLOUDY    90  75  61 S5        29.86F HX 100           
AUSTIN         PTSUNNY   93  71  48 SE12      29.86F HX 100           
DAL FT WORTH   MOSUNNY   96  61  31 CALM      29.82F                  
TEXARKANA      MOSUNNY   90  73  57 W10       29.83F HX  98           
SHREVEPORT       N/A     91  72  53 SW9       29.83F HX  98           
FORT POLK      PTSUNNY   85  75  71 W10       29.87S                  
LAKE CHARLES     N/A     84  76  76 S5        29.88F                  
$$